CCM26J LIRF-LFMN

Flight info

Callsign CCM26J
Flight time N/A
Altitude 32000
Route PODOX DCT TOBGA DCT DOBIM/N0425F300 DCT AKUTI R16 KERIT
Aircraft A320/M-SDE3FGHIRWY/LB1

Departure

Time N/A
Airport Rome–Fiumicino Leonardo da Vinci International Airport (LIRF)

Arrival

Time 2026-05-06 13:53
Airport Nice-Côte d'Azur Airport (LFMN)
Time Latitude Longitude Altitude Speed Heading
2026-05-06 13:13 41.78928 11.74616 13680 ft 332 kts 267°
2026-05-06 13:13 41.78914 11.71508 14308 ft 335 kts 267°
2026-05-06 13:13 41.78901 11.68367 14909 ft 339 kts 267°
2026-05-06 13:13 41.78888 11.65192 15544 ft 342 kts 266°
2026-05-06 13:14 41.78871 11.61994 16152 ft 345 kts 266°
2026-05-06 13:14 41.78851 11.58753 16736 ft 349 kts 266°
2026-05-06 13:14 41.78842 11.55486 17326 ft 353 kts 269°
2026-05-06 13:14 41.79068 11.52221 17894 ft 359 kts 273°
2026-05-06 13:15 41.79342 11.48882 18445 ft 363 kts 272°
2026-05-06 13:15 41.79618 11.45512 18962 ft 365 kts 272°
2026-05-06 13:15 41.79892 11.42125 19529 ft 366 kts 272°
2026-05-06 13:15 41.80178 11.38723 20097 ft 369 kts 275°
2026-05-06 13:16 41.80807 11.35366 20658 ft 377 kts 285°
2026-05-06 13:16 41.81961 11.32170 21214 ft 385 kts 297°
2026-05-06 13:16 41.83598 11.29277 21766 ft 393 kts 304°
2026-05-06 13:16 41.85364 11.26464 22312 ft 395 kts 303°
2026-05-06 13:17 41.87136 11.23630 22851 ft 397 kts 303°
2026-05-06 13:17 41.88914 11.20780 23370 ft 400 kts 303°
2026-05-06 13:17 41.90701 11.17906 23816 ft 402 kts 302°
2026-05-06 13:17 41.92494 11.15018 24228 ft 404 kts 302°
2026-05-06 13:18 41.94293 11.12113 24646 ft 405 kts 302°
2026-05-06 13:18 41.96098 11.09194 25052 ft 407 kts 302°
2026-05-06 13:18 41.97912 11.06259 25447 ft 409 kts 302°
2026-05-06 13:18 41.99735 11.03311 25822 ft 411 kts 302°
2026-05-06 13:19 42.01562 11.00353 26205 ft 412 kts 302°
2026-05-06 13:19 42.03397 10.97381 26574 ft 414 kts 302°
2026-05-06 13:19 42.05240 10.94393 26940 ft 416 kts 302°
2026-05-06 13:19 42.07089 10.91394 27301 ft 417 kts 302°
2026-05-06 13:20 42.08949 10.88378 27659 ft 419 kts 302°
2026-05-06 13:20 42.10813 10.85352 28037 ft 420 kts 302°
2026-05-06 13:20 42.12678 10.82317 28414 ft 421 kts 302°
2026-05-06 13:20 42.14547 10.79271 28760 ft 422 kts 302°
2026-05-06 13:21 42.16421 10.76214 29090 ft 424 kts 302°
2026-05-06 13:21 42.18304 10.73142 29408 ft 426 kts 302°
2026-05-06 13:21 42.20190 10.70060 29712 ft 427 kts 302°
2026-05-06 13:21 42.22082 10.66962 30011 ft 429 kts 301°
2026-05-06 13:22 42.23337 10.64906 30188 ft 429 kts 301°
2026-05-06 13:22 42.25238 10.61788 30433 ft 431 kts 301°
2026-05-06 13:22 42.27158 10.58676 30679 ft 434 kts 304°
2026-05-06 13:22 42.29357 10.55814 30892 ft 445 kts 311°
2026-05-06 13:23 42.31722 10.53104 31066 ft 447 kts 311°
2026-05-06 13:23 42.34101 10.50385 31327 ft 447 kts 311°
2026-05-06 13:23 42.36479 10.47670 31641 ft 446 kts 311°
2026-05-06 13:23 42.38846 10.44964 31884 ft 446 kts 311°
2026-05-06 13:24 42.41192 10.42282 31930 ft 435 kts 311°
2026-05-06 13:24 42.45743 10.37074 31931 ft 425 kts 310°
2026-05-06 13:25 42.50303 10.31780 31933 ft 440 kts 310°
2026-05-06 13:25 42.55019 10.26294 31929 ft 453 kts 311°
2026-05-06 13:26 42.59728 10.20555 31927 ft 450 kts 302°
2026-05-06 13:26 42.61423 10.17067 31931 ft 438 kts 288°
2026-05-06 13:26 42.62727 10.13327 31932 ft 439 kts 288°
2026-05-06 13:27 42.65306 10.05800 31930 ft 440 kts 287°
2026-05-06 13:27 42.67877 9.98255 31928 ft 440 kts 287°
2026-05-06 13:28 42.70448 9.90706 31924 ft 440 kts 287°
2026-05-06 13:28 42.73019 9.83155 31945 ft 440 kts 287°
2026-05-06 13:29 42.75586 9.75606 31939 ft 440 kts 288°
2026-05-06 13:29 42.78217 9.68085 31674 ft 440 kts 288°
2026-05-06 13:29 42.79549 9.64332 31420 ft 440 kts 288°
2026-05-06 13:30 42.80879 9.60582 31172 ft 441 kts 288°
2026-05-06 13:30 42.82212 9.56812 30923 ft 441 kts 288°
2026-05-06 13:30 42.83538 9.53041 30691 ft 441 kts 288°
2026-05-06 13:30 42.84860 9.49268 30444 ft 441 kts 288°
2026-05-06 13:31 42.86178 9.45495 30228 ft 442 kts 288°
2026-05-06 13:31 42.87497 9.41707 29981 ft 443 kts 288°
2026-05-06 13:31 42.88816 9.37900 29706 ft 444 kts 288°
2026-05-06 13:31 42.90133 9.34091 29324 ft 443 kts 288°
2026-05-06 13:32 42.91448 9.30292 28148 ft 443 kts 288°
2026-05-06 13:32 42.92771 9.26475 26890 ft 447 kts 289°
2026-05-06 13:32 42.94101 9.22630 25625 ft 450 kts 289°
2026-05-06 13:32 42.95446 9.18747 24345 ft 454 kts 289°
2026-05-06 13:33 42.96797 9.14851 23394 ft 452 kts 290°
2026-05-06 13:33 42.98133 9.11001 22454 ft 446 kts 290°
2026-05-06 13:33 42.99448 9.07191 21954 ft 442 kts 290°
2026-05-06 13:33 43.00757 9.03383 21698 ft 442 kts 290°
2026-05-06 13:34 43.02060 8.99594 21436 ft 440 kts 290°
2026-05-06 13:34 43.03359 8.95810 21177 ft 439 kts 290°
2026-05-06 13:34 43.04650 8.92036 20924 ft 437 kts 290°
2026-05-06 13:34 43.05932 8.88271 20671 ft 436 kts 290°
2026-05-06 13:35 43.07208 8.84521 20415 ft 435 kts 290°
2026-05-06 13:35 43.08483 8.80781 20162 ft 433 kts 290°
2026-05-06 13:35 43.09753 8.77051 19929 ft 432 kts 290°
2026-05-06 13:35 43.11018 8.73334 19691 ft 430 kts 290°
2026-05-06 13:36 43.12278 8.69632 19458 ft 428 kts 289°
2026-05-06 13:36 43.13531 8.65944 19218 ft 426 kts 289°
2026-05-06 13:36 43.14776 8.62267 18977 ft 425 kts 289°
2026-05-06 13:36 43.16015 8.58602 18741 ft 423 kts 289°
2026-05-06 13:37 43.17245 8.54950 18507 ft 422 kts 289°
2026-05-06 13:37 43.18472 8.51303 18273 ft 420 kts 289°
2026-05-06 13:37 43.19697 8.47674 17737 ft 417 kts 290°
2026-05-06 13:37 43.20910 8.44083 16958 ft 413 kts 290°
2026-05-06 13:38 43.22107 8.40539 16245 ft 408 kts 290°
2026-05-06 13:38 43.23293 8.37020 15555 ft 404 kts 290°
2026-05-06 13:38 43.24463 8.33536 14897 ft 401 kts 291°
2026-05-06 13:38 43.25623 8.30073 14224 ft 398 kts 291°
2026-05-06 13:39 43.26772 8.26635 13570 ft 395 kts 291°
2026-05-06 13:39 43.27910 8.23220 12919 ft 391 kts 291°
2026-05-06 13:39 43.29014 8.19896 12312 ft 385 kts 291°
2026-05-06 13:39 43.30130 8.16529 11690 ft 380 kts 291°
2026-05-06 13:40 43.31215 8.13255 11237 ft 371 kts 291°
2026-05-06 13:40 43.32246 8.10153 11120 ft 353 kts 291°
2026-05-06 13:40 43.33261 8.07117 10981 ft 337 kts 291°
2026-05-06 13:40 43.34205 8.04293 10860 ft 323 kts 291°
2026-05-06 13:41 43.35117 8.01548 10746 ft 309 kts 290°
2026-05-06 13:41 43.35987 7.98910 10621 ft 297 kts 290°
2026-05-06 13:41 43.36823 7.96368 10513 ft 286 kts 290°
2026-05-06 13:41 43.37629 7.93919 10311 ft 278 kts 290°
2026-05-06 13:42 43.38432 7.91534 10198 ft 274 kts 290°
2026-05-06 13:42 43.39244 7.89173 10133 ft 273 kts 290°
2026-05-06 13:42 43.40060 7.86811 9943 ft 272 kts 291°
2026-05-06 13:42 43.40873 7.84456 9820 ft 275 kts 291°
2026-05-06 13:43 43.41738 7.82092 9590 ft 279 kts 298°
2026-05-06 13:43 43.42831 7.79870 9114 ft 281 kts 301°
2026-05-06 13:43 43.43934 7.77673 8780 ft 276 kts 299°
2026-05-06 13:43 43.45010 7.75525 8287 ft 270 kts 299°
2026-05-06 13:44 43.46065 7.73406 7653 ft 267 kts 299°
2026-05-06 13:44 43.47103 7.71316 7145 ft 263 kts 300°
2026-05-06 13:44 43.48136 7.69234 6668 ft 263 kts 300°
2026-05-06 13:44 43.49163 7.67161 6197 ft 261 kts 300°
2026-05-06 13:45 43.50175 7.65114 5699 ft 258 kts 300°
2026-05-06 13:45 43.52103 7.61217 5283 ft 226 kts 299°
2026-05-06 13:45 43.52970 7.59468 4880 ft 219 kts 299°
2026-05-06 13:46 43.53819 7.57744 4562 ft 216 kts 301°
2026-05-06 13:46 43.54663 7.56018 4401 ft 219 kts 301°
2026-05-06 13:46 43.55498 7.54316 4282 ft 209 kts 301°
2026-05-06 13:46 43.56291 7.52708 4193 ft 198 kts 300°
2026-05-06 13:47 43.57058 7.51152 4105 ft 196 kts 300°
2026-05-06 13:47 43.57816 7.49607 4015 ft 193 kts 300°
2026-05-06 13:47 43.58575 7.48071 3688 ft 195 kts 300°
2026-05-06 13:47 43.59361 7.46521 3305 ft 200 kts 300°
2026-05-06 13:48 43.60167 7.44942 3024 ft 201 kts 301°
2026-05-06 13:48 43.60980 7.43357 3011 ft 204 kts 301°
2026-05-06 13:48 43.61807 7.41741 2742 ft 207 kts 301°
2026-05-06 13:48 43.62622 7.40150 2482 ft 197 kts 301°
2026-05-06 13:49 43.63392 7.38646 2209 ft 188 kts 299°
2026-05-06 13:49 43.64135 7.37193 1910 ft 183 kts 300°
2026-05-06 13:49 43.64858 7.35783 1692 ft 177 kts 298°
2026-05-06 13:49 43.65558 7.34415 1449 ft 172 kts 298°
2026-05-06 13:50 43.66239 7.33087 1233 ft 168 kts 298°
2026-05-06 13:50 43.66902 7.31802 1021 ft 159 kts 298°
2026-05-06 13:50 43.67530 7.30610 910 ft 148 kts 298°
2026-05-06 13:50 43.68137 7.29475 910 ft 145 kts 295°
2026-05-06 13:51 43.68697 7.28334 776 ft 142 kts 293°
2026-05-06 13:51 43.69105 7.27150 648 ft 132 kts 273°
2026-05-06 13:51 43.69065 7.25929 570 ft 127 kts 246°
2026-05-06 13:51 43.68568 7.24972 474 ft 125 kts 220°
2026-05-06 13:52 43.67935 7.24157 327 ft 123 kts 223°
2026-05-06 13:52 43.67309 7.23334 222 ft 127 kts 223°
2026-05-06 13:52 43.66693 7.22472 50 ft 125 kts 222°
2026-05-06 13:52 43.66121 7.21695 21 ft 98 kts 224°
2026-05-06 13:53 43.65750 7.21200 23 ft 54 kts 223°
2026-05-06 13:53 43.65633 7.20968 22 ft 23 kts 279°
2026-05-06 13:53 43.65752 7.20892 21 ft 6 kts 340°
2026-05-06 13:53 43.65801 7.20867 21 ft 10 kts 341°
2026-05-06 13:54 43.65864 7.20844 21 ft 9 kts 348°
2026-05-06 13:54 43.65920 7.20832 21 ft 7 kts 351°
2026-05-06 13:54 43.65966 7.20824 21 ft 6 kts 352°
2026-05-06 13:54 43.66003 7.20816 23 ft 5 kts 351°
2026-05-06 13:55 43.66068 7.20802 22 ft 11 kts 351°
2026-05-06 13:55 43.66089 7.20798 21 ft 4 kts 351°
2026-05-06 13:55 43.66115 7.20792 22 ft 4 kts 349°
2026-05-06 13:55 43.66128 7.20772 21 ft 2 kts 289°
2026-05-06 13:56 43.66126 7.20745 21 ft 5 kts 263°
2026-05-06 13:56 43.66121 7.20708 21 ft 1 kts 260°
2026-05-06 13:56 43.66119 7.20692 21 ft 2 kts 261°
2026-05-06 13:56 43.66119 7.20689 21 ft 1 kts 261°
2026-05-06 13:57 43.66119 7.20687 21 ft 0 kts 261°